When you browse on this site, cookies collect data to enhance your experience and personalize the content and advertising you see.
Visit our Privacy Policy to learn more. By continuing to use the site, you agree to this use of cookies and data.
  • Em Portugal
  • Lista de países
  • Para 7 dias
  • Temperatura da água
  • Mapas de satélite
  • Mapa do tempo
  • Widgets de tempo
  • user-avatar
    Iniciar Sessão

    Previsão horária em Lubomin

    Hoje, 18 Dezembro, Terça-feira

    Tempo Temperatura Precipitação Vento Pressão Humidade
    00:00 -3°C° 0 mm 2 m/s 728 mmHg 90%
    01:00 0°C° 0 mm 1 m/s 728 mmHg 91%
    02:00 0°C° 0 mm 1 m/s 728 mmHg 91%
    03:00 -2°C° 0 mm 2 m/s 728 mmHg 91%
    04:00 -2°C° 0 mm 2 m/s 728 mmHg 91%
    05:00 -2°C° 0 mm 2 m/s 728 mmHg 91%
    06:00 -2°C° 0 mm 2 m/s 728 mmHg 91%
    07:00 -2°C° 0 mm 2 m/s 728 mmHg 92%
    08:00 -1°C° 0 mm 2 m/s 728 mmHg 91%
    09:00 -1°C° 0 mm 2 m/s 729 mmHg 91%
    10:00 -1°C° 0 mm 2 m/s 729 mmHg 90%
    11:00 +1°C° 0 mm 2 m/s 729 mmHg 90%
    12:00 +2°C° 0 mm 1 m/s 729 mmHg 90%
    13:00 +3°C° 0 mm 1 m/s 729 mmHg 90%
    14:00 +2°C° 0 mm 1 m/s 729 mmHg 90%
    15:00 +2°C° 0 mm 1 m/s 729 mmHg 91%
    16:00 +1°C° 0 mm 1 m/s 729 mmHg 92%
    17:00 +1°C° 0 mm 1 m/s 728 mmHg 91%
    18:00 0°C° 0 mm 1 m/s 728 mmHg 91%
    19:00 0°C° 0 mm 1 m/s 728 mmHg 91%
    20:00 -2°C° 0 mm 2 m/s 728 mmHg 91%
    21:00 -3°C° 0 mm 2 m/s 728 mmHg 90%
    22:00 -3°C° 0 mm 2 m/s 728 mmHg 90%
    23:00 -3°C° 0 mm 2 m/s 728 mmHg 90%

    Amanhã, 19 Dezembro, Quarta-feira

    Tempo Temperatura Precipitação Vento Pressão Humidade
    00:00 -3°C° 0 mm 2 m/s 727 mmHg 90%
    01:00 -3°C° 0 mm 2 m/s 727 mmHg 90%
    02:00 -4°C° 0 mm 3 m/s 727 mmHg 90%
    03:00 -4°C° 0 mm 3 m/s 726 mmHg 89%
    04:00 -5°C° 0 mm 3 m/s 726 mmHg 89%
    05:00 -5°C° 0 mm 3 m/s 726 mmHg 89%
    06:00 -5°C° 0 mm 3 m/s 726 mmHg 88%
    07:00 -5°C° 0 mm 3 m/s 725 mmHg 88%
    08:00 -4°C° 0 mm 4 m/s 725 mmHg 85%
    09:00 -3°C° 0 mm 4 m/s 725 mmHg 82%
    10:00 -3°C° 0 mm 4 m/s 725 mmHg 79%
    11:00 -2°C° 0 mm 4 m/s 725 mmHg 78%
    12:00 -2°C° 0 mm 4 m/s 725 mmHg 77%
    13:00 -2°C° 0 mm 5 m/s 725 mmHg 75%
    14:00 -2°C° 0 mm 4 m/s 724 mmHg 77%
    15:00 -3°C° 0 mm 4 m/s 724 mmHg 79%
    16:00 -3°C° 0 mm 4 m/s 724 mmHg 81%
    17:00 -3°C° 0 mm 4 m/s 723 mmHg 81%
    18:00 -4°C° 0 mm 4 m/s 723 mmHg 81%
    19:00 -4°C° 0 mm 4 m/s 723 mmHg 81%
    20:00 -4°C° 0 mm 4 m/s 723 mmHg 81%
    21:00 -4°C° 0 mm 4 m/s 723 mmHg 80%
    22:00 -4°C° 0 mm 4 m/s 723 mmHg 80%
    23:00 -4°C° 0 mm 4 m/s 722 mmHg 80%

    Depois de amanhã, 20 Dezembro, Quinta-feira

    Tempo Temperatura Precipitação Vento Pressão Humidade
    00:00 -4°C° 0 mm 4 m/s 722 mmHg 80%
    01:00 -5°C° 0 mm 4 m/s 722 mmHg 80%
    02:00 -5°C° 0 mm 3 m/s 722 mmHg 80%
    03:00 -5°C° 0 mm 3 m/s 722 mmHg 80%
    04:00 -5°C° 0 mm 3 m/s 722 mmHg 80%
    05:00 -5°C° 0 mm 3 m/s 722 mmHg 81%
    06:00 -5°C° 0 mm 3 m/s 722 mmHg 81%
    07:00 -5°C° 0 mm 3 m/s 722 mmHg 81%
    08:00 -5°C° 0 mm 3 m/s 722 mmHg 80%
    09:00 -5°C° 0 mm 3 m/s 722 mmHg 79%
    10:00 -4°C° 0 mm 3 m/s 722 mmHg 78%
    11:00 -4°C° 0.2 mm 3 m/s 722 mmHg 80%
    12:00 -2°C° 0.2 mm 3 m/s 722 mmHg 81%
    13:00 -2°C° 0.2 mm 3 m/s 722 mmHg 82%
    14:00 -2°C° 0.2 mm 3 m/s 722 mmHg 84%
    15:00 -2°C° 0.2 mm 3 m/s 722 mmHg 86%
    16:00 -2°C° 0.2 mm 3 m/s 722 mmHg 88%
    17:00 -2°C° 0 mm 3 m/s 722 mmHg 88%
    18:00 -2°C° 0 mm 3 m/s 722 mmHg 89%
    19:00 -1°C° 0 mm 3 m/s 723 mmHg 89%
    20:00 -1°C° 0 mm 3 m/s 723 mmHg 90%
    21:00 -1°C° 0 mm 3 m/s 723 mmHg 90%
    22:00 -1°C° 0 mm 3 m/s 723 mmHg 90%
    23:00 -1°C° 0 mm 3 m/s 723 mmHg 90%

    21 Dezembro, Sexta-feira

    Tempo Temperatura Precipitação Vento Pressão Humidade
    00:00 -1°C° 0 mm 3 m/s 723 mmHg 91%
    01:00 -1°C° 0 mm 3 m/s 723 mmHg 91%
    02:00 -1°C° 0 mm 3 m/s 723 mmHg 91%
    03:00 -2°C° 0 mm 4 m/s 723 mmHg 91%
    04:00 -2°C° 0 mm 4 m/s 723 mmHg 90%
    05:00 -1°C° 0 mm 4 m/s 723 mmHg 90%
    06:00 -1°C° 0 mm 4 m/s 723 mmHg 89%
    07:00 -1°C° 0 mm 4 m/s 723 mmHg 89%
    08:00 -1°C° 0 mm 4 m/s 723 mmHg 88%
    09:00 -1°C° 0 mm 4 m/s 722 mmHg 87%
    10:00 -1°C° 0 mm 4 m/s 722 mmHg 87%
    11:00 0°C° 0 mm 4 m/s 722 mmHg 86%
    12:00 0°C° 0 mm 5 m/s 721 mmHg 85%
    13:00 0°C° 0 mm 5 m/s 720 mmHg 84%
    14:00 0°C° 0.3 mm 5 m/s 720 mmHg 84%
    15:00 -1°C° 0.3 mm 6 m/s 719 mmHg 84%
    16:00 -1°C° 0.3 mm 6 m/s 718 mmHg 84%
    17:00 -1°C° 0.9 mm 7 m/s 717 mmHg 84%
    18:00 0°C° 0.9 mm 7 m/s 716 mmHg 84%
    19:00 0°C° 0.9 mm 7 m/s 716 mmHg 84%
    20:00 +2°C° 0.9 mm 7 m/s 716 mmHg 85%
    21:00 +2°C° 0.9 mm 7 m/s 715 mmHg 86%
    22:00 +3°C° 0.9 mm 7 m/s 715 mmHg 86%
    23:00 +3°C° 0.1 mm 7 m/s 715 mmHg 87%

    22 Dezembro, Sábado

    Tempo Temperatura Precipitação Vento Pressão Humidade
    00:00 +3°C° 0.1 mm 6 m/s 715 mmHg 88%
    01:00 +3°C° 0.1 mm 6 m/s 716 mmHg 89%
    02:00 +3°C° 0 mm 6 m/s 716 mmHg 88%
    03:00 +2°C° 0 mm 5 m/s 716 mmHg 87%
    04:00 +2°C° 0 mm 5 m/s 717 mmHg 85%
    05:00 +1°C° 0 mm 5 m/s 717 mmHg 85%
    06:00 +1°C° 0 mm 6 m/s 718 mmHg 84%
    07:00 +1°C° 0 mm 6 m/s 718 mmHg 83%
    08:00 +2°C° 0 mm 6 m/s 718 mmHg 82%
    09:00 +2°C° 0 mm 6 m/s 719 mmHg 82%
    10:00 +2°C° 0 mm 6 m/s 719 mmHg 81%
    11:00 +3°C° 0 mm 6 m/s 718 mmHg 81%
    12:00 +3°C° 0 mm 5 m/s 718 mmHg 80%
    13:00 +5°C° 0 mm 5 m/s 718 mmHg 79%
    14:00 +5°C° 0.1 mm 5 m/s 717 mmHg 81%
    15:00 +5°C° 0.1 mm 5 m/s 717 mmHg 83%
    16:00 +5°C° 0.1 mm 5 m/s 716 mmHg 85%
    17:00 +4°C° 0.3 mm 6 m/s 716 mmHg 86%
    18:00 +4°C° 0.3 mm 6 m/s 716 mmHg 87%
    19:00 +4°C° 0.3 mm 6 m/s 716 mmHg 87%
    20:00 +3°C° 0 mm 6 m/s 717 mmHg 85%
    21:00 +3°C° 0 mm 6 m/s 717 mmHg 82%
    22:00 +3°C° 0 mm 7 m/s 717 mmHg 80%
    23:00 +3°C° 0.1 mm 7 m/s 718 mmHg 80%

    23 Dezembro, Domingo

    Tempo Temperatura Precipitação Vento Pressão Humidade
    00:00 +3°C° 0.1 mm 7 m/s 718 mmHg 80%
    01:00 +2°C° 0.1 mm 8 m/s 719 mmHg 80%
    02:00 +3°C° 0.2 mm 7 m/s 719 mmHg 80%
    03:00 +2°C° 0.2 mm 7 m/s 720 mmHg 81%
    04:00 +2°C° 0.2 mm 7 m/s 720 mmHg 82%
    05:00 +2°C° 0 mm 6 m/s 720 mmHg 82%
    06:00 +2°C° 0 mm 6 m/s 721 mmHg 83%
    07:00 +1°C° 0 mm 6 m/s 721 mmHg 84%
    08:00 +2°C° 0.1 mm 6 m/s 722 mmHg 83%
    09:00 +2°C° 0.1 mm 6 m/s 722 mmHg 82%
    10:00 +2°C° 0.1 mm 6 m/s 723 mmHg 80%
    11:00 +2°C° 0.1 mm 7 m/s 723 mmHg 78%
    12:00 +3°C° 0.1 mm 7 m/s 723 mmHg 76%
    13:00 +3°C° 0.1 mm 7 m/s 723 mmHg 74%
    14:00 +3°C° 0.1 mm 7 m/s 724 mmHg 76%
    15:00 +2°C° 0.1 mm 6 m/s 724 mmHg 77%
    16:00 +2°C° 0.1 mm 6 m/s 724 mmHg 79%
    17:00 +2°C° 0 mm 6 m/s 725 mmHg 80%
    18:00 +1°C° 0 mm 5 m/s 725 mmHg 82%
    19:00 +1°C° 0 mm 5 m/s 726 mmHg 83%
    20:00 +1°C° 0 mm 5 m/s 726 mmHg 85%
    21:00 0°C° 0 mm 4 m/s 726 mmHg 86%
    22:00 0°C° 0 mm 4 m/s 727 mmHg 87%
    23:00 +1°C° 0 mm 3 m/s 727 mmHg 88%
    Mostrar mais